Location: ?????
(54.9266°N, 38.5527°E)
Time: 20:17:55
(UTC+00:00)

deb REX - Pass Details

Date: 26 September 2024
Orbit: 705 x 731 km, 89.8° (Epoch: 09 October)

Event Time Altitude Azimuth Distance (km) Brightness Sun altitude
Rises 01:06:11 0° 12° (NNE) 3,121 ? -19.3°
Reaches altitude 10° 01:09:41 10° 38° (NE) 2,192 ? -18.8°
Maximum altitude 01:12:07 14° 68° (ENE) 1,946 ? -18.5°
Drops below altitude 10° 01:14:31 10° 99° (E) 2,181 ? -18.2°
Sets 01:17:59 0° 125° (SE) 3,093 ? -17.8°
